Home > Weather > Adama > Past weeks

Flag for Ethiopia Past Weather in Adama, Ethiopia — Yesterday and Last 2 Weeks

Now
57 °F

Passing clouds.


Feels Like: 57 °F
Forecast: 61 / 84 °F
Wind: 5 mph from Northwest

Location: Addis Ababa Airport

Current Time: Jul 2, 2016 at 1:29:42 AM

Latest Report: Jul 2, 2016 at 1:00 AM


Visibility: N/A

Pressure: 30.33 "Hg (25.01 "Hg at 1621m altitude)

Humidity: 88%

Dew Point: 54 °F

Location of AdamaLocation

Past Weather in Adama — Graph

°F

Adama Temperature Yesterday

Maximum temperature yesterday: 70 °F (at 2:00 PM)
Minimum temperature yesterday: 57 °F (at 2:00 AM)
Average temperature yesterday: 62 °F

High & Low Weather Summary for the Past Weeks

 TemperatureHumidityPressure
High72 °F (Jun 21, 2:00 PM)94% (Jun 18, 5:00 AM)30.42 "Hg (Jun 18, 5:00 AM)
Low52 °F (Jun 21, 6:00 AM)50% (Jun 26, 4:00 PM)30.21 "Hg (Jun 24, 5:00 PM)
Average60 °F76%30.32 "Hg
* Reported Jun 17 12:00 AM — Jul 2 12:00 AM, Adama, Weather by CustomWeather, © 2016

Note: Actual official high and low records may vary slightly from our data, if they occured in-between our weather recording intervals... More about our weather records

Advertising

Adama Weather History for the Previous 24 Hours

Scroll right to see more
 ConditionsComfort  
Time TempWeatherWind HumidityBarometerVisibility
12:00 AM
Sat, Jul 2
59 °FPassing clouds.5 mph82%30.36 "HgN/A
11:00 PM
Fri, Jul 1
59 °FPassing clouds.No wind88%30.39 "HgN/A
10:00 PM61 °FPassing clouds.2 mph83%30.39 "HgN/A
9:00 PM61 °FPassing clouds.2 mph72%30.36 "HgN/A
7:00 PM61 °FPassing clouds.2 mph63%30.30 "HgN/A
6:00 PM61 °FPassing clouds.7 mph63%30.30 "HgN/A
5:00 PM63 °FThunderstorms. Passing clouds.7 mph64%30.30 "Hg5 mi
4:00 PM68 °FPassing clouds.12 mph64%30.27 "HgN/A
3:00 PM70 °FScattered clouds.12 mph64%30.30 "HgN/A
2:00 PM70 °FScattered clouds.9 mph60%30.30 "HgN/A
12:00 PM66 °FFog.9 mph68%30.36 "Hg6 mi
11:00 AM64 °FFog.7 mph78%30.39 "Hg5 mi
10:00 AM63 °FFog.7 mph77%30.39 "Hg5 mi
9:00 AM59 °FPartly sunny.5 mph88%30.39 "HgN/A
6:00 AM57 °FPassing clouds.7 mph77%30.36 "HgN/A
5:00 AM57 °FPassing clouds.9 mph77%30.33 "HgN/A
3:00 AM57 °FPassing clouds.9 mph82%30.33 "HgN/A
2:00 AM57 °FPartly cloudy.5 mph88%30.33 "HgN/A
Weather by CustomWeather, © 2016

See weather overviewHow to use our weather pages